Flag for Cambodia Weather past 2 weeks in Battambang, Cambodia

Now
82 °F

Passing clouds.


Feels Like: 84 °F
Forecast: 67 / 90 °F
Wind: 7 mph from South

Location: Siemreap

Current Time: Jan 31, 2015 at 5:19:45 PM

Latest Report: Jan 31, 2015 at 5:00 PM


Visibility: N/A

Pressure: 29.89 "Hg

Humidity: 55%

Dew point: 64 °F

Location of BattambangLocation

Historic Weather in Battambang — Graph

°F

Battambang temperature yesterday

Maximum temperature yesterday: 84 °F (at 12:30 PM)
Minimum temperature yesterday: 73 °F (at 7:00 AM)
Average temperature yesterday: 79 °F

Past Weeks' High & Low Weather Summary

 TemperatureHumidityPressure
High91 °F (Jan 26, 3:30 PM)94% (Jan 20, 11:30 PM)30.09 "Hg (Jan 20, 11:30 PM)
Low63 °F (Jan 22, 7:00 AM)29% (Jan 21, 1:00 PM)29.56 "Hg (Jan 27, 8:00 PM)
Average78 °F65%29.92 "Hg
* Reported Jan 16 4:00 PM — Jan 31 4:00 PM, Battambang, Weather by CustomWeather, © 2014

Note: Actual official high and low records may vary slightly from our data, if they occured in-between our weather recording intervals... More about our weather records

Advertising

Battambang weather history for previous 24 hours

 ConditionsComfort  
Time TempWeatherWind HumidityBarometerVisibility
4:00 PM
Jan 31
84 °FPassing clouds.8 mph51%29.86 "HgN/A
3:30 PM84 °FPassing clouds.8 mph48%29.89 "HgN/A
3:00 PM86 °FPassing clouds.9 mph46%29.89 "HgN/A
2:30 PM86 °FPassing clouds.10 mph49%29.89 "HgN/A
2:00 PM86 °FPassing clouds.8 mph43%29.89 "HgN/A
1:30 PM86 °FPassing clouds.8 mph43%29.92 "HgN/A
1:00 PM86 °FSunny.5 mph38%29.92 "Hg10 mi
12:30 PM84 °FSunny.6 mph40%29.95 "Hg10 mi
12:00 PM84 °FPassing clouds.7 mph40%29.98 "HgN/A
11:30 AM82 °FSunny.9 mph42%29.98 "Hg10 mi
11:00 AM81 °FSunny.12 mph45%30.01 "Hg10 mi
10:00 AM79 °FSunny.13 mph48%30.01 "Hg10 mi
9:30 AM77 °FSunny.13 mph51%30.01 "Hg10 mi
9:00 AM75 °FSunny.N/A57%30.01 "Hg10 mi
8:30 AM75 °FClear.7 mph57%30.01 "HgN/A
7:30 AM72 °FClear.7 mph69%29.98 "HgN/A
1:00 AM75 °FClear.3 mph94%29.92 "Hg5 mi
12:30 AM75 °FClear.2 mph94%29.92 "Hg5 mi
12:00 AM75 °FClear.2 mph94%29.92 "Hg5 mi
11:30 PM
Jan 30
75 °FClear.2 mph94%29.92 "Hg5 mi
11:00 PM75 °FClear.2 mph94%29.92 "Hg5 mi
10:30 PM77 °FClear.3 mph89%29.92 "Hg5 mi
10:00 PM75 °FClear.3 mph94%29.92 "Hg5 mi
9:30 PM77 °FClear.3 mph89%29.92 "Hg5 mi
9:00 PM77 °FClear.1 mph89%29.92 "Hg5 mi
8:30 PM77 °FClear.1 mph89%29.89 "Hg5 mi
8:00 PM77 °FClear.2 mph89%29.89 "Hg5 mi
7:30 PM79 °FClear.1 mph89%29.89 "Hg6 mi
7:00 PM79 °FClear.1 mph84%29.86 "Hg6 mi
6:30 PM79 °FClear.2 mph84%29.86 "Hg6 mi
6:00 PM81 °FSunny.3 mph79%29.86 "Hg10 mi
5:30 PM81 °FSunny.6 mph79%29.86 "Hg10 mi
5:00 PM82 °FPassing clouds.8 mph74%29.83 "HgN/A
Weather by CustomWeather, © 2014

See weather overviewHow to use our weather pages